Skip Page Navigation
NASA JPL Caltech
NASA Logo - Jet Propulsion Laboratory + View the NASA Portal
+ Center for Near-Earth Object Studies
JPL Home Earth Solar System Stars & Galaxies Technology
JPL Solar System Dynamics
BODIES ORBITS EPHEMERIDES TOOLS PHYSICAL DATA DISCOVERY FAQ SITE MAP
JPL Small-Body Database Browser
Search: [ help ]  
357872 (2005 UG367)
Classification: Main-belt Asteroid          SPK-ID: 2357872
Ephemeris | Orbit Diagram | Orbital Elements | Mission Design | Physical Parameters | Discovery Circumstances | Close-Approach Data ]

[ show orbit diagram ]
Orbital Elements at Epoch 2459000.5 (2020-May-31.0) TDB
Reference: JPL 11 (heliocentric ecliptic J2000)
 Element Value Uncertainty (1-sigma)   Units 
e .04611862893469472 7.0372e-08  
a 3.131481081632862 5.4937e-08 au
q 2.987061467613019 2.3302e-07 au
i 16.88078037360138 7.6375e-06 deg
node 61.29732129003113 2.2516e-05 deg
peri 118.0606108946314 0.00012525 deg
M 99.15352962139775 0.00011393 deg
tp 2458443.020639454033
(2018-Nov-20.52063945)
0.00064784 TDB
period 2024.058755778653
5.54
5.3264e-05
1.458e-07
d
yr
n .1778604494420956 4.6805e-09 deg/d
Q 3.275900695652704 5.7471e-08 au
  Orbit Determination Parameters
   # obs. used (total)      225  
   data-arc span      4963 days (13.59 yr)  
   first obs. used      2005-10-27  
   last obs. used      2019-05-30  
   planetary ephem.      DE431  
   SB-pert. ephem.      SB431-N16  
   condition code      0  
   norm. resid. RMS      .58476  
   source      ORB  
   producer      Otto Matic  
   solution date      2020-Feb-26 00:33:31  

Additional Information
 Earth MOID = 2.01748 au 
 Jupiter MOID = 1.77691 au 
 T_jup = 3.145 
[ show covariance matrix ]

Ephemeris | Orbit Diagram | Orbital Elements | Mission Design | Physical Parameters | Discovery Circumstances | Close-Approach Data ]

Physical Parameter Table
Parameter Symbol Value Units Sigma Reference Notes
absolute magnitude H 15.2   n/a MPO476675  

357872 (2005 UG367)          Discovered 2005-Oct-27 by Spacewatch at Kitt Peak
Reference: 20130327/Numbers.arcLast Updated: 2013-03-29

[ show close-approach data ]
Ephemeris | Orbit Diagram | Orbital Elements | Mission Design | Physical Parameters | Discovery Circumstances | Close-Approach Data ]
ABOUT SSD CREDITS/AWARDS PRIVACY/COPYRIGHT GLOSSARY LINKS
FirstGov 2020-Jul-10 19:51 UT
(server date/time)  
NASA Home Page
Site Manager:   Ryan S. Park
Webmaster  Alan B. Chamberlin